Location: Écuvilly
(49.6505°N, 2.9206°E)
Time: 16:44:54
(UTC+00:00)

YAOGAN 1 - Pass Details

Date: 17 November 2025
Orbit: 605 x 607 km, 97.8° (Epoch: 09 December)

Event Time Altitude Azimuth Distance (km) Brightness Sun altitude
Rises 18:05:01 0° 163° (SSE) 2,854 5.9 -19.5°
Reaches altitude 10° 18:07:11 10° 163° (SSE) 1,954 5.0 -19.9°
Maximum altitude 18:11:26 87° 76° (ENE) 616 2.4 -20.6°
Drops below altitude 10° 18:15:44 10° 347° (NNW) 1,969 5.2 -21.3°
Sets 18:17:55 0° 347° (NNW) 2,878 6.1 -21.6°
